Flag for Finland Weather past 2 weeks in Oulu, Finland

Now
41 °F

Partly sunny.


Feels Like: 36 °F
Forecast: 40 / 49 °F
Wind: 7 mph from South

Location: Oulu Airport

Current Time: Oct 1, 2014 at 11:52:29 AM

Latest Report: Oct 1, 2014 at 11:20 AM


Visibility: N/A

Pressure: 30.42 "Hg

Humidity: 70%

Dew point: 32 °F

Location of OuluLocation

Historic Weather in Oulu — Graph

°F

Oulu temperature yesterday

Maximum temperature yesterday: 48 °F (at 12:50 AM)
Minimum temperature yesterday: 32 °F (at 11:20 PM)
Average temperature yesterday: 45 °F

Past Weeks' High & Low Weather Summary

 TemperatureHumidityPressure
High63 °F (Sep 16, 1:50 PM)100% (Sep 17, 4:20 AM)30.45 "Hg (Sep 17, 4:20 AM)
Low27 °F (Oct 1, 4:20 AM)39% (Sep 22, 1:50 PM)29.12 "Hg (Sep 26, 11:50 PM)
Average46 °F80%29.80 "Hg
* Reported Sep 16 10:20 AM — Oct 1 10:50 AM, Oulu, Weather by CustomWeather, © 2014

Note: Actual official high and low records may vary slightly from our data, if they occured in-between our weather recording intervals... More about our weather records

Advertising

Oulu weather history for previous 24 hours

 ConditionsComfort  
Time TempWeatherWind HumidityBarometerVisibility
10:50 AM
Oct 1
39 °FSunny.6 mph70%30.45 "Hg10 mi
10:20 AM36 °FSunny.7 mph81%30.45 "Hg10 mi
9:50 AM34 °FSunny.6 mph81%30.45 "Hg10 mi
9:20 AM30 °FSunny.5 mph93%30.45 "Hg10 mi
8:50 AM30 °FSunny.5 mph86%30.45 "Hg10 mi
8:20 AM28 °FClear.5 mph86%30.45 "Hg10 mi
7:50 AM27 °FClear.5 mph93%30.45 "Hg10 mi
7:20 AM27 °FClear.5 mph93%30.45 "Hg10 mi
6:50 AM27 °FClear.5 mph93%30.45 "Hg10 mi
6:20 AM28 °FClear.1 mph93%30.45 "Hg10 mi
5:50 AM27 °FClear.1 mph93%30.45 "Hg10 mi
5:20 AM28 °FClear.1 mph93%30.42 "Hg10 mi
4:50 AM28 °FClear.1 mph86%30.42 "Hg10 mi
4:20 AM27 °FClear.1 mph100%30.42 "Hg10 mi
3:50 AM28 °FClear.2 mph93%30.42 "Hg10 mi
3:20 AM28 °FClear.2 mph93%30.42 "Hg10 mi
2:50 AM28 °FClear.2 mph93%30.42 "Hg10 mi
2:20 AM30 °FClear.1 mph93%30.42 "Hg10 mi
1:50 AM30 °FClear.1 mph86%30.39 "Hg10 mi
1:20 AM32 °FClear.1 mph87%30.39 "Hg10 mi
12:50 AM34 °FClear.2 mph87%30.39 "Hg10 mi
12:20 AM32 °FClear.2 mph87%30.39 "Hg10 mi
11:50 PM
Sep 30
32 °FClear.2 mph87%30.39 "Hg10 mi
11:20 PM32 °FPassing clouds.3 mph87%30.36 "HgN/A
10:50 PM34 °FClear.2 mph81%30.36 "Hg10 mi
10:20 PM39 °FClear.1 mph70%30.36 "Hg10 mi
9:50 PM43 °FPassing clouds.2 mph66%30.36 "HgN/A
9:20 PM43 °FPassing clouds.7 mph66%30.36 "HgN/A
8:50 PM45 °FPassing clouds.6 mph61%30.33 "HgN/A
8:20 PM45 °FPassing clouds.7 mph61%30.33 "HgN/A
7:50 PM43 °FPartly sunny.6 mph66%30.33 "HgN/A
7:20 PM45 °FSunny.6 mph66%30.30 "Hg10 mi
6:50 PM45 °FSunny.6 mph61%30.30 "Hg10 mi
6:20 PM46 °FSunny.10 mph57%30.30 "Hg10 mi
5:50 PM46 °FSunny.10 mph57%30.27 "Hg10 mi
5:20 PM48 °FSunny.13 mph54%30.27 "Hg10 mi
4:50 PM48 °FSunny.13 mph54%30.27 "Hg10 mi
4:20 PM48 °FSunny.14 mph54%30.24 "Hg10 mi
3:50 PM48 °FSunny.13 mph58%30.24 "Hg10 mi
3:20 PM48 °FSunny.12 mph58%30.21 "Hg10 mi
2:50 PM48 °FSunny.14 mph62%30.21 "Hg10 mi
2:20 PM48 °FSunny.17 mph66%30.21 "Hg10 mi
1:50 PM48 °FPassing clouds.16 mph66%30.18 "HgN/A
1:20 PM48 °FScattered clouds.13 mph66%30.18 "HgN/A
12:50 PM48 °FScattered clouds.13 mph71%30.15 "HgN/A
12:20 PM46 °FPassing clouds.15 mph71%30.15 "HgN/A
11:50 AM48 °FPassing clouds.13 mph66%30.12 "HgN/A
11:20 AM46 °FPassing clouds.12 mph71%30.12 "HgN/A
Weather by CustomWeather, © 2014

See weather overviewHow to use our weather pages